Location: Crescent
(42.8242°N, 73.7329°W)
Time: 15:17:43
(UTC+00:00)

Explorer 11/Cluster Stage 4 - Pass Details

Date: 21 February 2026
Orbit: 463 x 1176 km, 28.8° (Epoch: 8 March)

Event Time Altitude Azimuth Distance (km) Brightness Sun altitude
Rises 18:43:32 0° 239° (WSW) 2,835 10.2 32.6°
Reaches altitude 10° 18:47:53 10° 200° (SSW) 1,769 9.9 32.2°
Maximum altitude 18:48:40 11° 188° (S) 1,714 9.6 32.1°
Drops below altitude 10° 18:49:26 10° 177° (S) 1,721 9.3 32.0°
Sets 18:53:20 0° 135° (SE) 2,509 9.4 31.7°
